{"data":{"norad_id":64268,"epoch":"2026-05-25T05:08:47.634144Z","epoch_age_seconds":55980,"freshness":"FRESH","line1":"1 64268U 25120N   26145.21444021  .00027526  00000+0  82280-3 0  9996","line2":"2 64268  53.1587 119.0250 0001239  86.0348 274.0796 15.34400580 55655","mean_motion":15.3440058,"eccentricity":0.0001239,"inclination_deg":53.1587,"raan_deg":119.025,"arg_perigee_deg":86.0348,"mean_anomaly_deg":274.0796,"bstar":0.0008228,"rev_number":5565,"period_min":93.847722607091,"perigee_km":461.85393643325,"apogee_km":463.54909621759,"semimajor_km":6840.8385163254,"source":"CELESTRAK","updated_at":"2026-05-25T13:38:20.359613Z"}}